Regional Weather Roundup
Issued by NWS

Home | Current Version | Previous Version | Graphics & Text | Print | Product List | Glossary On
Versions: 1 2 3 4 5 6 7 8 9 10 11 12 13 14 15 16 17 18 19 20 21 22 23 24 25 26 27 28 29 30 31 32 33 34 35 36 37 38 39 40 41 42 43 44 45 46 47 48 49 50
000
ASUS43 KTOP 060208
RWRKS

WEATHER ROUNDUP FOR KANSAS
NATIONAL WEATHER SERVICE GOODLAND KS
900 PM CDT SUN JUL 05 2015

NOTE:  "FAIR" INDICATES FEW OR NO CLOUDS BELOW 12,000 FEET WITH NO
SIGNIFICANT WEATHER AND/OR OBSTRUCTIONS TO VISIBILITY.

KSZ001>006-013>018-027>032-041>047-060300-
NORTHWEST KANSAS

CITY           SKY/WX    TMP DP  RH WIND       PRES   REMARKS
GOODLAND       TSTM      81  59  47 SW7G20    29.82R
HAYS           CLOUDY    90  61  37 S13       29.80R
HILL CITY      CLOUDY    92  58  31 S17G28    29.77R
RUSSELL        MOCLDY    88  62  41 S15       29.79R
$$

KSZ061>065-074>080-084>089-060300-
SOUTHWEST KANSAS

CITY           SKY/WX    TMP DP  RH WIND       PRES   REMARKS
DODGE CITY     PTCLDY    84  61  45 S15       29.85S
ELKHART          N/A     85  56  37 S16         N/A
GARDEN CITY    CLOUDY    83  63  50 S15       29.83R
GREAT BEND     MOCLDY    86  64  48 S14       29.82S
LIBERAL        MOCLDY    88  59  37 S15       29.88R
PRATT          MOCLDY    86  59  39 S13       29.86S
$$

KSZ066>073-081>083-090>101-060300-
SOUTHEAST KANSAS

CITY           SKY/WX    TMP DP  RH WIND       PRES   REMARKS
CHANUTE        CLEAR     84  74  71 S10       29.91R
COFFEYVILLE    CLEAR     85  74  69 S10       29.90S
HUTCHINSON     PTCLDY    89  63  41 S12       29.83R
MEDICINE LODGE   N/A     90  64  42 S9        29.84R
NEWTON         PTCLDY    88  64  45 S14       29.89R
PARSONS        PTCLDY    86  74  67 S7        29.92S
WICHITA INTL   PTCLDY    90  67  46 S15       29.85R
WICHITA JABRA  CLEAR     88  67  49 S16G23    29.86R
WICHITA MCCONL CLEAR     89  69  52 SE17      29.87R
WINFIELD       CLEAR     87  70  56 S14       29.89R
$$

KSZ007>012-019>026-033>040-048>060-102>105-060300-
NORTHEAST KANSAS

CITY           SKY/WX    TMP DP  RH WIND       PRES   REMARKS
CONCORDIA      CLEAR     89  62  40 S13       29.79R
EMPORIA        CLEAR     85  71  63 SE13      29.87R
LAWRENCE       CLEAR     83  76  79 SE9       29.88R
MANHATTAN      CLEAR     89  71  55 S13       29.82R HX  95
MARYSVILLE     CLEAR     86  72  62 S15       29.81S
OLATHE IND     CLEAR     84  75  74 SE10      29.91R
OLATHE EXE     CLEAR     82  74  76 S12       29.90S
SALINA         PTCLDY    92  62  36 S10       29.80R
TOPEKA BILLARD CLEAR     85  72  65 SE9       29.86R
TOPEKA FORBES  CLEAR     84  72  67 SE8       29.87R
$$



USA.gov is the U.S. government's official web portal to all federal, state and local government web resources and services.